Location: Aressy
(43.2833°N, 0.3167°W)
Time: 19:07:29
(UTC+00:00)

Meteor 1-11 - Pass Details

Date: 28 January 2021
Orbit: 840 x 887 km, 81.2° (Epoch: 02 March)

Event Time Altitude Azimuth Distance (km) Brightness Sun altitude
Rises 18:42:06 0° 194° (SSW) 3,438 7.7 -17.2°
Reaches altitude 10° 18:44:32 10° 196° (SSW) 2,498 7.0 -17.6°
Maximum altitude 18:50:12 72° 281° (W) 901 4.5 -18.6°
Drops below altitude 10° 18:55:50 10° 6° (N) 2,485 6.5 -19.7°
Sets 18:58:16 0° 9° (N) 3,419 7.2 -20.1°
